Track COSMOS 2522 (GLONASS) now! COSMOS 2522 (GLONASS) is classified as:
1 42939U 17055A 25133.78360791 .00000054 00000-0 00000-0 0 9999 2 42939 64.0755 205.4827 0009466 237.9935 121.9951 2.13101898 59462